Year,Month,Day,Hour,Minute,Value (Times are PST for temperature in C)
2006,12,16,00,00,4.50
2006,12,16,00,01,4.60
2006,12,16,00,02,4.60
2006,12,16,00,03,4.60
2006,12,16,00,04,4.60
2006,12,16,00,05,4.60
2006,12,16,00,06,4.60
2006,12,16,00,07,4.60
2006,12,16,00,08,4.60
2006,12,16,00,09,4.60
2006,12,16,00,10,4.60
2006,12,16,00,11,4.60
2006,12,16,00,12,4.60
2006,12,16,00,13,4.60
2006,12,16,00,14,4.60
2006,12,16,00,15,4.60
2006,12,16,00,16,4.60
2006,12,16,00,17,4.60
2006,12,16,00,18,4.60
2006,12,16,00,19,4.60
2006,12,16,00,20,4.60
2006,12,16,00,21,4.60
2006,12,16,00,22,4.60
2006,12,16,00,23,4.50
2006,12,16,00,24,4.50
2006,12,16,00,25,4.50
2006,12,16,00,26,4.50
2006,12,16,00,27,4.40
2006,12,16,00,28,4.40
2006,12,16,00,29,4.40
2006,12,16,00,30,4.40
2006,12,16,00,31,4.40
2006,12,16,00,32,4.40
2006,12,16,00,33,4.30
2006,12,16,00,34,4.30
2006,12,16,00,35,4.30
2006,12,16,00,36,4.20
2006,12,16,00,37,4.20
2006,12,16,00,38,4.30
2006,12,16,00,39,4.30
2006,12,16,00,40,4.30
2006,12,16,00,41,4.30
2006,12,16,00,42,4.40
2006,12,16,00,43,4.40
2006,12,16,00,44,4.40
2006,12,16,00,45,4.50
2006,12,16,00,46,4.50
2006,12,16,00,47,4.50
2006,12,16,00,48,4.60
2006,12,16,00,49,4.60
2006,12,16,00,50,4.60
2006,12,16,00,51,4.60
2006,12,16,00,52,4.60
2006,12,16,00,53,4.70
2006,12,16,00,54,4.70
2006,12,16,00,55,4.70
2006,12,16,00,56,4.70
2006,12,16,00,57,4.80
2006,12,16,00,58,4.80
2006,12,16,00,59,4.90
2006,12,16,01,00,4.90
2006,12,16,01,01,4.90
2006,12,16,01,02,4.90
2006,12,16,01,03,4.90
2006,12,16,01,04,4.90
2006,12,16,01,05,4.90
2006,12,16,01,06,5.00
2006,12,16,01,07,5.00
2006,12,16,01,08,5.10
2006,12,16,01,09,5.10
2006,12,16,01,10,5.10
2006,12,16,01,11,5.10
2006,12,16,01,12,5.20
2006,12,16,01,13,5.30
2006,12,16,01,14,5.30
2006,12,16,01,15,5.30
2006,12,16,01,16,5.30
2006,12,16,01,17,5.30
2006,12,16,01,18,5.30
2006,12,16,01,19,5.30
2006,12,16,01,20,5.30
2006,12,16,01,21,5.30
2006,12,16,01,22,5.30
2006,12,16,01,23,5.30
2006,12,16,01,24,5.30
2006,12,16,01,25,5.30
2006,12,16,01,26,5.20
2006,12,16,01,27,5.20
2006,12,16,01,28,5.20
2006,12,16,01,29,5.20
2006,12,16,01,30,5.10
2006,12,16,01,31,5.10
2006,12,16,01,32,5.10
2006,12,16,01,33,5.10
2006,12,16,01,34,5.10
2006,12,16,01,35,5.10
2006,12,16,01,36,5.10
2006,12,16,01,37,5.10
2006,12,16,01,38,5.10
2006,12,16,01,39,5.10
2006,12,16,01,40,5.10
2006,12,16,01,41,5.10
2006,12,16,01,42,5.10
2006,12,16,01,43,5.10
2006,12,16,01,44,5.10
2006,12,16,01,45,5.10
2006,12,16,01,46,5.10
2006,12,16,01,47,5.10
2006,12,16,01,48,5.10
2006,12,16,01,49,5.00
2006,12,16,01,50,4.90
2006,12,16,01,51,4.90
2006,12,16,01,52,4.90
2006,12,16,01,53,4.90
2006,12,16,01,54,4.90
2006,12,16,01,55,4.90
2006,12,16,01,56,4.90
2006,12,16,01,57,4.90
2006,12,16,01,58,4.90
2006,12,16,01,59,4.90
2006,12,16,02,00,4.90
2006,12,16,02,01,4.90
2006,12,16,02,02,4.90
2006,12,16,02,03,4.90
2006,12,16,02,04,4.90
2006,12,16,02,05,4.90
2006,12,16,02,06,4.90
2006,12,16,02,07,4.90
2006,12,16,02,08,4.80
2006,12,16,02,09,4.80
2006,12,16,02,10,4.80
2006,12,16,02,11,4.80
2006,12,16,02,12,4.80
2006,12,16,02,13,4.80
2006,12,16,02,14,4.80
2006,12,16,02,15,4.80
2006,12,16,02,16,4.80
2006,12,16,02,17,4.80
2006,12,16,02,18,4.80
2006,12,16,02,19,4.80
2006,12,16,02,20,4.80
2006,12,16,02,21,4.80
2006,12,16,02,22,4.80
2006,12,16,02,23,4.80
2006,12,16,02,24,4.80
2006,12,16,02,25,4.70
2006,12,16,02,26,4.70
2006,12,16,02,27,4.70
2006,12,16,02,28,4.70
2006,12,16,02,29,4.70
2006,12,16,02,30,4.70
2006,12,16,02,31,4.70
2006,12,16,02,32,4.60
2006,12,16,02,33,4.60
2006,12,16,02,34,4.60
2006,12,16,02,35,4.60
2006,12,16,02,36,4.60
2006,12,16,02,37,4.60
2006,12,16,02,38,4.60
2006,12,16,02,39,4.60
2006,12,16,02,40,4.60
2006,12,16,02,41,4.60
2006,12,16,02,42,4.60
2006,12,16,02,43,4.60
2006,12,16,02,44,4.60
2006,12,16,02,45,4.60
2006,12,16,02,46,4.60
2006,12,16,02,47,4.60
2006,12,16,02,48,4.60
2006,12,16,02,49,4.60
2006,12,16,02,50,4.60
2006,12,16,02,51,4.60
2006,12,16,02,52,4.60
2006,12,16,02,53,4.60
2006,12,16,02,54,4.60
2006,12,16,02,55,4.60
2006,12,16,02,56,4.60
2006,12,16,02,57,4.60
2006,12,16,02,58,4.60
2006,12,16,02,59,4.60
2006,12,16,03,00,4.60
2006,12,16,03,01,4.60
2006,12,16,03,02,4.60
2006,12,16,03,03,4.60
2006,12,16,03,04,4.60
2006,12,16,03,05,4.60
2006,12,16,03,06,4.70
2006,12,16,03,07,4.70
2006,12,16,03,08,4.70
2006,12,16,03,09,4.70
2006,12,16,03,10,4.80
2006,12,16,03,11,4.80
2006,12,16,03,12,4.80
2006,12,16,03,13,4.80
2006,12,16,03,14,4.80
2006,12,16,03,15,4.90
2006,12,16,03,16,4.90
2006,12,16,03,17,4.90
2006,12,16,03,18,4.90
2006,12,16,03,19,4.90
2006,12,16,03,20,4.90
2006,12,16,03,21,4.90
2006,12,16,03,22,4.90
2006,12,16,03,23,4.90
2006,12,16,03,24,4.90
2006,12,16,03,25,4.90
2006,12,16,03,26,4.90
2006,12,16,03,27,4.90
2006,12,16,03,28,4.90
2006,12,16,03,29,5.00
2006,12,16,03,30,5.10
2006,12,16,03,31,5.10
2006,12,16,03,32,5.10
2006,12,16,03,33,5.10
2006,12,16,03,34,5.10
2006,12,16,03,35,5.10
2006,12,16,03,36,5.10
2006,12,16,03,37,5.10
2006,12,16,03,38,5.10
2006,12,16,03,39,5.10
2006,12,16,03,40,5.10
2006,12,16,03,41,5.10
2006,12,16,03,42,5.10
2006,12,16,03,43,5.10
2006,12,16,03,44,5.10
2006,12,16,03,45,5.10
2006,12,16,03,46,5.10
2006,12,16,03,47,5.00
2006,12,16,03,48,5.00
2006,12,16,03,49,5.00
2006,12,16,03,50,4.90
2006,12,16,03,51,4.90
2006,12,16,03,52,4.90
2006,12,16,03,53,4.90
2006,12,16,03,54,4.90
2006,12,16,03,55,4.90
2006,12,16,03,56,4.90
2006,12,16,03,57,4.90
2006,12,16,03,58,4.90
2006,12,16,03,59,4.90
2006,12,16,04,00,5.00
2006,12,16,04,01,4.90
2006,12,16,04,02,4.90
2006,12,16,04,03,5.00
2006,12,16,04,04,4.90
2006,12,16,04,05,5.00
2006,12,16,04,06,5.10
2006,12,16,04,07,5.00
2006,12,16,04,08,4.90
2006,12,16,04,09,4.90
2006,12,16,04,10,4.90
2006,12,16,04,11,4.90
2006,12,16,04,12,4.90
2006,12,16,04,13,4.90
2006,12,16,04,14,4.90
2006,12,16,04,15,4.90
2006,12,16,04,16,4.90
2006,12,16,04,17,4.90
2006,12,16,04,18,4.90
2006,12,16,04,19,4.90
2006,12,16,04,20,4.90
2006,12,16,04,21,4.90
2006,12,16,04,22,4.90
2006,12,16,04,23,4.90
2006,12,16,04,24,4.90
2006,12,16,04,25,4.90
2006,12,16,04,26,4.90
2006,12,16,04,27,4.90
2006,12,16,04,28,4.90
2006,12,16,04,29,4.90
2006,12,16,04,30,4.90
2006,12,16,04,31,4.90
2006,12,16,04,32,4.90
2006,12,16,04,33,4.90
2006,12,16,04,34,4.90
2006,12,16,04,35,4.90
2006,12,16,04,36,4.90
2006,12,16,04,37,4.90
2006,12,16,04,38,4.90
2006,12,16,04,39,4.90
2006,12,16,04,40,4.90
2006,12,16,04,41,4.90
2006,12,16,04,42,4.90
2006,12,16,04,43,4.80
2006,12,16,04,44,4.80
2006,12,16,04,45,4.80
2006,12,16,04,46,4.80
2006,12,16,04,47,4.80
2006,12,16,04,48,4.80
2006,12,16,04,49,4.80
2006,12,16,04,50,4.80
2006,12,16,04,51,4.80
2006,12,16,04,52,4.80
2006,12,16,04,53,4.80
2006,12,16,04,54,4.90
2006,12,16,04,55,4.90
2006,12,16,04,56,4.90
2006,12,16,04,57,4.90
2006,12,16,04,58,4.90
2006,12,16,04,59,4.90
2006,12,16,05,00,4.90
2006,12,16,05,01,4.90
2006,12,16,05,02,4.90
2006,12,16,05,03,4.90
2006,12,16,05,04,4.90
2006,12,16,05,05,4.90
2006,12,16,05,06,4.90
2006,12,16,05,07,4.90
2006,12,16,05,08,4.90
2006,12,16,05,09,4.90
2006,12,16,05,10,4.90
2006,12,16,05,11,4.90
2006,12,16,05,12,4.90
2006,12,16,05,13,4.90
2006,12,16,05,14,5.00
2006,12,16,05,15,5.10
2006,12,16,05,16,5.10
2006,12,16,05,17,5.10
2006,12,16,05,18,5.10
2006,12,16,05,19,5.10
2006,12,16,05,20,5.10
2006,12,16,05,21,5.10
2006,12,16,05,22,5.10
2006,12,16,05,23,5.10
2006,12,16,05,24,5.10
2006,12,16,05,25,5.10
2006,12,16,05,26,5.10
2006,12,16,05,27,5.10
2006,12,16,05,28,5.10
2006,12,16,05,29,5.10
2006,12,16,05,30,5.10
2006,12,16,05,31,5.10
2006,12,16,05,32,5.10
2006,12,16,05,33,5.10
2006,12,16,05,34,5.10
2006,12,16,05,35,5.10
2006,12,16,05,36,5.10
2006,12,16,05,37,5.10
2006,12,16,05,38,5.10
2006,12,16,05,39,5.10
2006,12,16,05,40,5.10
2006,12,16,05,41,5.10
2006,12,16,05,42,5.10
2006,12,16,05,43,5.20
2006,12,16,05,44,5.10
2006,12,16,05,45,5.10
2006,12,16,05,46,5.10
2006,12,16,05,47,5.10
2006,12,16,05,48,5.10
2006,12,16,05,49,5.10
2006,12,16,05,50,5.10
2006,12,16,05,51,5.10
2006,12,16,05,52,5.10
2006,12,16,05,53,5.10
2006,12,16,05,54,5.10
2006,12,16,05,55,5.10
2006,12,16,05,56,5.10
2006,12,16,05,57,5.10
2006,12,16,05,58,5.10
2006,12,16,05,59,5.10
2006,12,16,06,00,5.10
2006,12,16,06,01,5.10
2006,12,16,06,02,5.10
2006,12,16,06,03,5.10
2006,12,16,06,04,5.10
2006,12,16,06,05,5.10
2006,12,16,06,06,5.10
2006,12,16,06,07,5.10
2006,12,16,06,08,5.10
2006,12,16,06,09,5.10
2006,12,16,06,10,5.10
2006,12,16,06,11,5.10
2006,12,16,06,12,5.10
2006,12,16,06,13,5.10
2006,12,16,06,14,5.10
2006,12,16,06,15,5.10
2006,12,16,06,16,5.10
2006,12,16,06,17,5.10
2006,12,16,06,18,5.10
2006,12,16,06,19,5.10
2006,12,16,06,20,5.10
2006,12,16,06,21,5.10
2006,12,16,06,22,5.10
2006,12,16,06,23,5.10
2006,12,16,06,24,5.10
2006,12,16,06,25,5.10
2006,12,16,06,26,5.10
2006,12,16,06,27,5.10
2006,12,16,06,28,5.10
2006,12,16,06,29,5.10
2006,12,16,06,30,5.10
2006,12,16,06,31,5.10
2006,12,16,06,32,5.10
2006,12,16,06,33,5.10
2006,12,16,06,34,5.10
2006,12,16,06,35,5.10
2006,12,16,06,36,5.10
2006,12,16,06,37,5.10
2006,12,16,06,38,5.10
2006,12,16,06,39,5.10
2006,12,16,06,40,5.10
2006,12,16,06,41,5.10
2006,12,16,06,42,5.10
2006,12,16,06,43,5.10
2006,12,16,06,44,5.10
2006,12,16,06,45,5.10
2006,12,16,06,46,5.10
2006,12,16,06,47,5.10
2006,12,16,06,48,5.10
2006,12,16,06,49,5.10
2006,12,16,06,50,5.10
2006,12,16,06,51,5.10
2006,12,16,06,52,5.10
2006,12,16,06,53,5.10
2006,12,16,06,54,5.10
2006,12,16,06,55,5.10
2006,12,16,06,56,5.10
2006,12,16,06,57,5.10
2006,12,16,06,58,5.10
2006,12,16,06,59,5.10
2006,12,16,07,00,5.10
2006,12,16,07,01,5.10
2006,12,16,07,02,5.10
2006,12,16,07,03,5.10
2006,12,16,07,04,5.10
2006,12,16,07,05,5.10
2006,12,16,07,06,5.20
2006,12,16,07,07,5.20
2006,12,16,07,08,5.20
2006,12,16,07,09,5.20
2006,12,16,07,10,5.20
2006,12,16,07,11,5.20
2006,12,16,07,12,5.20
2006,12,16,07,13,5.20
2006,12,16,07,14,5.20
2006,12,16,07,15,5.20
2006,12,16,07,16,5.20
2006,12,16,07,17,5.20
2006,12,16,07,18,5.20
2006,12,16,07,19,5.20
2006,12,16,07,20,5.20
2006,12,16,07,21,5.10
2006,12,16,07,22,5.10
2006,12,16,07,23,5.10
2006,12,16,07,24,5.10
2006,12,16,07,25,5.10
2006,12,16,07,26,5.10
2006,12,16,07,27,5.10
2006,12,16,07,28,5.10
2006,12,16,07,29,5.10
2006,12,16,07,30,5.10
2006,12,16,07,31,5.10
2006,12,16,07,32,5.10
2006,12,16,07,33,5.10
2006,12,16,07,34,5.10
2006,12,16,07,35,5.10
2006,12,16,07,36,5.10
2006,12,16,07,37,5.10
2006,12,16,07,38,5.10
2006,12,16,07,39,5.10
2006,12,16,07,40,5.10
2006,12,16,07,41,5.10
2006,12,16,07,42,5.10
2006,12,16,07,43,5.10
2006,12,16,07,44,5.10
2006,12,16,07,45,5.10
2006,12,16,07,46,5.10
2006,12,16,07,47,5.10
2006,12,16,07,48,5.10
2006,12,16,07,49,5.10
2006,12,16,07,50,5.10
2006,12,16,07,51,5.10
2006,12,16,07,52,5.10
2006,12,16,07,53,5.10
2006,12,16,07,54,5.10
2006,12,16,07,55,5.10
2006,12,16,07,56,5.10
2006,12,16,07,57,5.10
2006,12,16,07,58,5.10
2006,12,16,07,59,5.10
2006,12,16,08,00,5.10
2006,12,16,08,01,5.00
2006,12,16,08,02,4.90
2006,12,16,08,03,4.90
2006,12,16,08,04,4.90
2006,12,16,08,05,4.90
2006,12,16,08,06,5.00
2006,12,16,08,07,5.10
2006,12,16,08,08,5.10
2006,12,16,08,09,5.10
2006,12,16,08,10,5.10
2006,12,16,08,11,5.10
2006,12,16,08,12,5.10
2006,12,16,08,13,5.10
2006,12,16,08,14,5.10
2006,12,16,08,15,5.10
2006,12,16,08,16,5.10
2006,12,16,08,17,5.10
2006,12,16,08,18,5.10
2006,12,16,08,19,5.10
2006,12,16,08,20,5.10
2006,12,16,08,21,5.10
2006,12,16,08,22,5.10
2006,12,16,08,23,5.10
2006,12,16,08,24,5.10
2006,12,16,08,25,5.10
2006,12,16,08,26,5.10
2006,12,16,08,27,5.10
2006,12,16,08,28,5.10
2006,12,16,08,29,5.10
2006,12,16,08,30,5.10
2006,12,16,08,31,5.10
2006,12,16,08,32,5.10
2006,12,16,08,33,5.10
2006,12,16,08,34,5.10
2006,12,16,08,35,5.10
2006,12,16,08,36,5.10
2006,12,16,08,37,5.10
2006,12,16,08,38,5.10
2006,12,16,08,39,5.10
2006,12,16,08,40,5.10
2006,12,16,08,41,5.10
2006,12,16,08,42,5.10
2006,12,16,08,43,5.10
2006,12,16,08,44,5.10
2006,12,16,08,45,5.10
2006,12,16,08,46,5.10
2006,12,16,08,47,5.10
2006,12,16,08,48,5.10
2006,12,16,08,49,5.10
2006,12,16,08,50,5.10
2006,12,16,08,51,5.10
2006,12,16,08,52,5.10
2006,12,16,08,53,5.10
2006,12,16,08,54,5.10
2006,12,16,08,55,5.10
2006,12,16,08,56,5.10
2006,12,16,08,57,5.10
2006,12,16,08,58,5.10
2006,12,16,08,59,5.10
2006,12,16,09,00,5.10
2006,12,16,09,01,5.10
2006,12,16,09,02,5.10
2006,12,16,09,03,5.10
2006,12,16,09,04,5.10
2006,12,16,09,05,5.10
2006,12,16,09,06,5.10
2006,12,16,09,07,5.10
2006,12,16,09,08,5.10
2006,12,16,09,09,5.10
2006,12,16,09,10,5.10
2006,12,16,09,11,5.10
2006,12,16,09,12,5.10
2006,12,16,09,13,5.10
2006,12,16,09,14,5.10
2006,12,16,09,15,5.10
2006,12,16,09,16,5.10
2006,12,16,09,17,5.10
2006,12,16,09,18,5.10
2006,12,16,09,19,5.10
2006,12,16,09,20,5.10
2006,12,16,09,21,5.10
2006,12,16,09,22,5.10
2006,12,16,09,23,5.10
2006,12,16,09,24,5.10
2006,12,16,09,25,5.10
2006,12,16,09,26,5.10
2006,12,16,09,27,5.10
2006,12,16,09,28,5.10
2006,12,16,09,29,5.20
2006,12,16,09,30,5.20
2006,12,16,09,31,5.20
2006,12,16,09,32,5.20
2006,12,16,09,33,5.20
2006,12,16,09,34,5.20
2006,12,16,09,35,5.20
2006,12,16,09,36,5.20
2006,12,16,09,37,5.20
2006,12,16,09,38,5.20
2006,12,16,09,39,5.20
2006,12,16,09,40,5.20
2006,12,16,09,41,5.20
2006,12,16,09,42,5.20
2006,12,16,09,43,5.20
2006,12,16,09,44,5.20
2006,12,16,09,45,5.20
2006,12,16,09,46,5.20
2006,12,16,09,47,5.20
2006,12,16,09,48,5.20
2006,12,16,09,49,5.20
2006,12,16,09,50,5.20
2006,12,16,09,51,5.20
2006,12,16,09,52,5.20
2006,12,16,09,53,5.20
2006,12,16,09,54,5.20
2006,12,16,09,55,5.20
2006,12,16,09,56,5.30
2006,12,16,09,57,5.30
2006,12,16,09,58,5.30
2006,12,16,09,59,5.30
2006,12,16,10,00,5.20
2006,12,16,10,01,5.20
2006,12,16,10,02,5.20
2006,12,16,10,03,5.20
2006,12,16,10,04,5.20
2006,12,16,10,05,5.20
2006,12,16,10,06,5.20
2006,12,16,10,07,5.20
2006,12,16,10,08,5.20
2006,12,16,10,09,5.20
2006,12,16,10,10,5.20
2006,12,16,10,11,5.20
2006,12,16,10,12,5.30
2006,12,16,10,13,5.30
2006,12,16,10,14,5.30
2006,12,16,10,15,5.30
2006,12,16,10,16,5.30
2006,12,16,10,17,5.30
2006,12,16,10,18,5.30
2006,12,16,10,19,5.30
2006,12,16,10,20,5.30
2006,12,16,10,21,5.30
2006,12,16,10,22,5.30
2006,12,16,10,23,5.30
2006,12,16,10,24,5.30
2006,12,16,10,25,5.40
2006,12,16,10,26,5.40
2006,12,16,10,27,5.40
2006,12,16,10,28,5.40
2006,12,16,10,29,5.40
2006,12,16,10,30,5.40
2006,12,16,10,31,5.40
2006,12,16,10,32,5.40
2006,12,16,10,33,5.40
2006,12,16,10,34,5.40
2006,12,16,10,35,5.40
2006,12,16,10,36,5.40
2006,12,16,10,37,5.40
2006,12,16,10,38,5.40
2006,12,16,10,39,5.40
2006,12,16,10,40,5.30
2006,12,16,10,41,5.30
2006,12,16,10,42,5.30
2006,12,16,10,43,5.30
2006,12,16,10,44,5.30
2006,12,16,10,45,5.30
2006,12,16,10,46,5.30
2006,12,16,10,47,5.30
2006,12,16,10,48,5.30
2006,12,16,10,49,5.30
2006,12,16,10,50,5.30
2006,12,16,10,51,5.30
2006,12,16,10,52,5.30
2006,12,16,10,53,5.30
2006,12,16,10,54,5.30
2006,12,16,10,55,5.30
2006,12,16,10,56,5.30
2006,12,16,10,57,5.30
2006,12,16,10,58,5.30
2006,12,16,10,59,5.30
2006,12,16,11,00,5.40
2006,12,16,11,01,5.40
2006,12,16,11,02,5.40
2006,12,16,11,03,5.40
2006,12,16,11,04,5.40
2006,12,16,11,05,5.40
2006,12,16,11,06,5.30
2006,12,16,11,07,5.40
2006,12,16,11,08,5.40
2006,12,16,11,09,5.40
2006,12,16,11,10,5.40
2006,12,16,11,11,5.30
2006,12,16,11,12,5.30
2006,12,16,11,13,5.30
2006,12,16,11,14,5.30
2006,12,16,11,15,5.30
2006,12,16,11,16,5.30
2006,12,16,11,17,5.30
2006,12,16,11,18,5.30
2006,12,16,11,19,5.30
2006,12,16,11,20,5.30
2006,12,16,11,21,5.30
2006,12,16,11,22,5.30
2006,12,16,11,23,5.30
2006,12,16,11,24,5.30
2006,12,16,11,25,5.30
2006,12,16,11,26,5.30
2006,12,16,11,27,5.30
2006,12,16,11,28,5.30
2006,12,16,11,29,5.30
2006,12,16,11,30,5.30
2006,12,16,11,31,5.30
2006,12,16,11,32,5.30
2006,12,16,11,33,5.20
2006,12,16,11,34,5.20
2006,12,16,11,35,5.20
2006,12,16,11,36,5.20
2006,12,16,11,37,5.30
2006,12,16,11,38,5.30
2006,12,16,11,39,5.30
2006,12,16,11,40,5.30
2006,12,16,11,41,5.30
2006,12,16,11,42,5.30
2006,12,16,11,43,5.30
2006,12,16,11,44,5.30
2006,12,16,11,45,5.30
2006,12,16,11,46,5.30
2006,12,16,11,47,5.30
2006,12,16,11,48,5.30
2006,12,16,11,49,5.30
2006,12,16,11,50,5.30
2006,12,16,11,51,5.30
2006,12,16,11,52,5.30
2006,12,16,11,53,5.30
2006,12,16,11,54,5.30
2006,12,16,11,55,5.30
2006,12,16,11,56,5.30
2006,12,16,11,57,5.30
2006,12,16,11,58,5.30
2006,12,16,11,59,5.30
2006,12,16,12,00,5.30
2006,12,16,12,01,5.40
2006,12,16,12,02,5.40
2006,12,16,12,03,5.40
2006,12,16,12,04,5.50
2006,12,16,12,05,5.50
2006,12,16,12,06,5.40
2006,12,16,12,07,5.40
2006,12,16,12,08,5.50
2006,12,16,12,09,5.50
2006,12,16,12,10,5.50
2006,12,16,12,11,5.50
2006,12,16,12,12,5.50
2006,12,16,12,13,5.40
2006,12,16,12,14,5.40
2006,12,16,12,15,5.50
2006,12,16,12,16,5.50
2006,12,16,12,17,5.50
2006,12,16,12,18,5.50
2006,12,16,12,19,5.50
2006,12,16,12,20,5.40
2006,12,16,12,21,5.40
2006,12,16,12,22,5.40
2006,12,16,12,23,5.40
2006,12,16,12,24,5.40
2006,12,16,12,25,5.40
2006,12,16,12,26,5.40
2006,12,16,12,27,5.40
2006,12,16,12,28,5.40
2006,12,16,12,29,5.40
2006,12,16,12,30,5.40
2006,12,16,12,31,5.40
2006,12,16,12,32,5.40
2006,12,16,12,33,5.50
2006,12,16,12,34,5.50
2006,12,16,12,35,5.50
2006,12,16,12,36,5.50
2006,12,16,12,37,5.50
2006,12,16,12,38,5.60
2006,12,16,12,39,5.60
2006,12,16,12,40,5.60
2006,12,16,12,41,5.60
2006,12,16,12,42,5.60
2006,12,16,12,43,5.60
2006,12,16,12,44,5.60
2006,12,16,12,45,5.60
2006,12,16,12,46,5.50
2006,12,16,12,47,5.50
2006,12,16,12,48,5.50
2006,12,16,12,49,5.40
2006,12,16,12,50,5.40
2006,12,16,12,51,5.40
2006,12,16,12,52,5.40
2006,12,16,12,53,5.40
2006,12,16,12,54,5.30
2006,12,16,12,55,5.30
2006,12,16,12,56,5.40
2006,12,16,12,57,5.40
2006,12,16,12,58,5.40
2006,12,16,12,59,5.40
2006,12,16,13,00,5.50
2006,12,16,13,01,5.50
2006,12,16,13,02,5.50
2006,12,16,13,03,5.50
2006,12,16,13,04,5.40
2006,12,16,13,05,5.40
2006,12,16,13,06,5.40
2006,12,16,13,07,5.40
2006,12,16,13,08,5.40
2006,12,16,13,09,5.30
2006,12,16,13,10,5.30
2006,12,16,13,11,5.30
2006,12,16,13,12,5.30
2006,12,16,13,13,5.30
2006,12,16,13,14,5.30
2006,12,16,13,15,5.30
2006,12,16,13,16,5.30
2006,12,16,13,17,5.30
2006,12,16,13,18,5.30
2006,12,16,13,19,5.30
2006,12,16,13,20,5.30
2006,12,16,13,21,5.30
2006,12,16,13,22,5.30
2006,12,16,13,23,5.30
2006,12,16,13,24,5.30
2006,12,16,13,25,5.30
2006,12,16,13,26,5.30
2006,12,16,13,27,5.30
2006,12,16,13,28,5.30
2006,12,16,13,29,5.30
2006,12,16,13,30,5.30
2006,12,16,13,31,5.30
2006,12,16,13,32,5.30
2006,12,16,13,33,5.30
2006,12,16,13,34,5.30
2006,12,16,13,35,5.30
2006,12,16,13,36,5.30
2006,12,16,13,37,5.30
2006,12,16,13,38,5.30
2006,12,16,13,39,5.30
2006,12,16,13,40,5.30
2006,12,16,13,41,5.40
2006,12,16,13,42,5.40
2006,12,16,13,43,5.40
2006,12,16,13,44,5.40
2006,12,16,13,45,5.40
2006,12,16,13,46,5.40
2006,12,16,13,47,5.40
2006,12,16,13,48,5.30
2006,12,16,13,49,5.30
2006,12,16,13,50,5.30
2006,12,16,13,51,5.30
2006,12,16,13,52,5.30
2006,12,16,13,53,5.30
2006,12,16,13,54,5.30
2006,12,16,13,55,5.30
2006,12,16,13,56,5.30
2006,12,16,13,57,5.30
2006,12,16,13,58,5.30
2006,12,16,13,59,5.30
2006,12,16,14,00,5.30
2006,12,16,14,01,5.30
2006,12,16,14,02,5.30
2006,12,16,14,03,5.30
2006,12,16,14,04,5.30
2006,12,16,14,05,5.30
2006,12,16,14,06,5.30
2006,12,16,14,07,5.30
2006,12,16,14,08,5.30
2006,12,16,14,09,5.30
2006,12,16,14,10,5.30
2006,12,16,14,11,5.30
2006,12,16,14,12,5.30
2006,12,16,14,13,5.30
2006,12,16,14,14,5.30
2006,12,16,14,15,5.30
2006,12,16,14,16,5.30
2006,12,16,14,17,5.30
2006,12,16,14,18,5.30
2006,12,16,14,19,5.30
2006,12,16,14,20,5.30
2006,12,16,14,21,5.30
2006,12,16,14,22,5.30
2006,12,16,14,23,5.30
2006,12,16,14,24,5.30
2006,12,16,14,25,5.30
2006,12,16,14,26,5.30
2006,12,16,14,27,5.30
2006,12,16,14,28,5.30
2006,12,16,14,29,5.30
2006,12,16,14,30,5.30
2006,12,16,14,31,5.30
2006,12,16,14,32,5.30
2006,12,16,14,33,5.30
2006,12,16,14,34,5.30
2006,12,16,14,35,5.30
2006,12,16,14,36,5.30
2006,12,16,14,37,5.30
2006,12,16,14,38,5.30
2006,12,16,14,39,5.30
2006,12,16,14,40,5.30
2006,12,16,14,41,5.30
2006,12,16,14,42,5.40
2006,12,16,14,43,5.40
2006,12,16,14,44,5.40
2006,12,16,14,45,5.40
2006,12,16,14,46,5.40
2006,12,16,14,47,5.40
2006,12,16,14,48,5.50
2006,12,16,14,49,5.50
2006,12,16,14,50,5.50
2006,12,16,14,51,5.50
2006,12,16,14,52,5.50
2006,12,16,14,53,5.50
2006,12,16,14,54,5.50
2006,12,16,14,55,5.50
2006,12,16,14,56,5.50
2006,12,16,14,57,5.50
2006,12,16,14,58,5.50
2006,12,16,14,59,5.40
2006,12,16,15,00,5.40
2006,12,16,15,01,5.40
2006,12,16,15,02,5.40
2006,12,16,15,03,5.40
2006,12,16,15,04,5.40
2006,12,16,15,05,5.40
2006,12,16,15,06,5.40
2006,12,16,15,07,5.40
2006,12,16,15,08,5.40
2006,12,16,15,09,5.40
2006,12,16,15,10,5.40
2006,12,16,15,11,5.40
2006,12,16,15,12,5.40
2006,12,16,15,13,5.40
2006,12,16,15,14,5.40
2006,12,16,15,15,5.40
2006,12,16,15,16,5.40
2006,12,16,15,17,5.40
2006,12,16,15,18,5.40
2006,12,16,15,19,5.40
2006,12,16,15,20,5.40
2006,12,16,15,21,5.40
2006,12,16,15,22,5.40
2006,12,16,15,23,5.40
2006,12,16,15,24,5.40
2006,12,16,15,25,5.40
2006,12,16,15,26,5.40
2006,12,16,15,27,5.40
2006,12,16,15,28,5.40
2006,12,16,15,29,5.40
2006,12,16,15,30,5.40
2006,12,16,15,31,5.40
2006,12,16,15,32,5.40
2006,12,16,15,33,5.40
2006,12,16,15,34,5.50
2006,12,16,15,35,5.50
2006,12,16,15,36,5.50
2006,12,16,15,37,5.50
2006,12,16,15,38,5.50
2006,12,16,15,39,5.50
2006,12,16,15,40,5.50
2006,12,16,15,41,5.50
2006,12,16,15,42,5.50
2006,12,16,15,43,5.50
2006,12,16,15,44,5.50
2006,12,16,15,45,5.50
2006,12,16,15,46,5.50
2006,12,16,15,47,5.50
2006,12,16,15,48,5.50
2006,12,16,15,49,5.50
2006,12,16,15,50,5.50
2006,12,16,15,51,5.50
2006,12,16,15,52,5.50
2006,12,16,15,53,5.50
2006,12,16,15,54,5.50
2006,12,16,15,55,5.50
2006,12,16,15,56,5.50
2006,12,16,15,57,5.50
2006,12,16,15,58,5.60
2006,12,16,15,59,5.60
2006,12,16,16,00,5.50
2006,12,16,16,01,5.60
2006,12,16,16,02,5.60
2006,12,16,16,03,5.60
2006,12,16,16,04,5.60
2006,12,16,16,05,5.60
2006,12,16,16,06,5.50
2006,12,16,16,07,5.50
2006,12,16,16,08,5.50
2006,12,16,16,09,5.50
2006,12,16,16,10,5.50
2006,12,16,16,11,5.50
2006,12,16,16,12,5.50
2006,12,16,16,13,5.50
2006,12,16,16,14,5.50
2006,12,16,16,15,5.40
2006,12,16,16,16,5.40
2006,12,16,16,17,5.40
2006,12,16,16,18,5.40
2006,12,16,16,19,5.30
2006,12,16,16,20,5.30
2006,12,16,16,21,5.30
2006,12,16,16,22,5.30
2006,12,16,16,23,5.30
2006,12,16,16,24,5.30
2006,12,16,16,25,5.30
2006,12,16,16,26,5.20
2006,12,16,16,27,5.20
2006,12,16,16,28,5.20
2006,12,16,16,29,5.10
2006,12,16,16,30,5.10
2006,12,16,16,31,5.10
2006,12,16,16,32,5.10
2006,12,16,16,33,5.10
2006,12,16,16,34,5.10
2006,12,16,16,35,5.10
2006,12,16,16,36,5.10
2006,12,16,16,37,5.10
2006,12,16,16,38,5.00
2006,12,16,16,39,4.90
2006,12,16,16,40,4.90
2006,12,16,16,41,4.90
2006,12,16,16,42,5.10
2006,12,16,16,43,5.10
2006,12,16,16,44,5.10
2006,12,16,16,45,5.10
2006,12,16,16,46,5.10
2006,12,16,16,47,5.10
2006,12,16,16,48,5.10
2006,12,16,16,49,5.10
2006,12,16,16,50,5.10
2006,12,16,16,51,5.10
2006,12,16,16,52,5.10
2006,12,16,16,53,5.10
2006,12,16,16,54,5.10
2006,12,16,16,55,5.10
2006,12,16,16,56,5.10
2006,12,16,16,57,5.10
2006,12,16,16,58,5.10
2006,12,16,16,59,5.10
2006,12,16,17,00,5.00
2006,12,16,17,01,4.90
2006,12,16,17,02,4.90
2006,12,16,17,03,4.80
2006,12,16,17,04,4.70
2006,12,16,17,05,4.60
2006,12,16,17,06,4.60
2006,12,16,17,07,4.50
2006,12,16,17,08,4.40
2006,12,16,17,09,4.30
2006,12,16,17,10,4.20
2006,12,16,17,11,4.10
2006,12,16,17,12,4.10
2006,12,16,17,13,4.00
2006,12,16,17,14,4.00
2006,12,16,17,15,3.90
2006,12,16,17,16,3.90
2006,12,16,17,17,3.80
2006,12,16,17,18,3.80
2006,12,16,17,19,3.80
2006,12,16,17,20,3.80
2006,12,16,17,21,3.80
2006,12,16,17,22,3.80
2006,12,16,17,23,3.70
2006,12,16,17,24,3.70
2006,12,16,17,25,3.70
2006,12,16,17,26,3.70
2006,12,16,17,27,3.70
2006,12,16,17,28,3.70
2006,12,16,17,29,3.70
2006,12,16,17,30,3.70
2006,12,16,17,31,3.70
2006,12,16,17,32,3.70
2006,12,16,17,33,3.70
2006,12,16,17,34,3.70
2006,12,16,17,35,3.80
2006,12,16,17,36,3.80
2006,12,16,17,37,3.80
2006,12,16,17,38,3.80
2006,12,16,17,39,3.80
2006,12,16,17,40,3.80
2006,12,16,17,41,3.80
2006,12,16,17,42,3.70
2006,12,16,17,43,3.70
2006,12,16,17,44,3.70
2006,12,16,17,45,3.70
2006,12,16,17,46,3.70
2006,12,16,17,47,3.70
2006,12,16,17,48,3.60
2006,12,16,17,49,3.60
2006,12,16,17,50,3.60
2006,12,16,17,51,3.50
2006,12,16,17,52,3.50
2006,12,16,17,53,3.50
2006,12,16,17,54,3.40
2006,12,16,17,55,3.40
2006,12,16,17,56,3.40
2006,12,16,17,57,3.40
2006,12,16,17,58,3.30
2006,12,16,17,59,3.30
2006,12,16,18,00,3.30
2006,12,16,18,01,3.30
2006,12,16,18,02,3.30
2006,12,16,18,03,3.30
2006,12,16,18,04,3.30
2006,12,16,18,05,3.30
2006,12,16,18,06,3.30